Temp
89 98 97 89 77 78 72 74 85 81 83 92 93 89 86 87 82 72 89 94 95 93 92 87 82 83 83 83 83 83 83 82 82 82 82 81 81 82 81 82 82 82 81 81 82 82 82 83 82
94 95 91 88 71 62 71 83 78 83 88 92 93 92 88 81 92 89 91 93 95 95 94 91 82 83 83 83 83 83 83 82 82 82 81 80 81 81 81 83 81 81 81 80 81 81 81 81 81
94 95 88 84 79 69 71 81 82 87 91 91 89 94 87 80 90 93 94 95 96 95 96 87 82 83 84 84 84 83 83 81 81 82 80 80 81 80 80 81 81 80 80 79 80 80 81 81 81
93 92 92 80 73 78 79 82 86 86 90 92 92 84 88 89 89 94 96 97 96 95 96 83 82 83 83 84 83 82 80 80 80 79 79 80 80 78 79 81 80 80 79 80 79 79 80 80 81
95 91 81 77 75 81 84 86 87 85 86 88 92 84 82 86 93 95 95 97 96 96 96 90 82 83 83 82 82 82 81 80 79 79 79 80 79 78 78 79 79 79 79 79 78 78 79 80 80
86 90 79 74 75 81 85 88 87 86 88 87 87 87 81 88 88 92 95 96 97 95 94 92 83 82 82 82 82 82 80 80 79 79 79 79 79 78 77 77 77 77 77 78 77 77 78 80 79
84 82 76 76 75 76 80 89 84 85 85 82 87 84 87 85 88 92 94 96 96 96 94 95 94 86 81 81 81 82 80 80 79 79 79 78 78 78 77 76 77 77 77 77 76 77 76 78 78
86 84 76 77 75 72 81 85 86 84 79 88 85 77 78 82 89 92 93 94 95 94 95 98 96 97 92 89 81 81 81 80 80 79 79 78 78 78 77 76 76 76 76 76 76 76 76 76 77
87 78 75 74 75 75 83 81 85 88 81 80 80 78 80 85 90 90 91 91 92 92 95 96 96 97 94 91 88 81 80 80 79 79 78 79 83 83 83 79 76 76 76 76 76 76 76 74 75
83 77 74 80 81 78 80 80 80 81 79 76 77 81 83 85 86 85 85 85 86 87 89 91 92 92 93 90 90 82 87 86 87 89 88 88 90 89 85 79 75 76 76 76 76 75 75 75 83
83 76 79 78 80 80 79 77 77 78 70 70 70 75 80 82 82 82 83 84 84 85 86 87 90 90 90 89 81 82 84 80 79 83 89 91 90 88 87 85 82 80 76 81 78 78 79 84 84
78 79 80 77 78 78 77 78 71 73 69 74 74 77 79 79 79 80 80 82 83 83 84 86 89 89 90 91 82 76 74 77 77 77 78 80 85 88 87 87 86 85 84 84 84 84 84 82 82
80 78 78 78 77 77 77 73 70 68 72 75 75 76 77 78 79 81 82 83 83 82 83 85 87 88 87 86 83 75 72 72 72 72 73 72 74 78 79 86 86 85 85 84 84 84 84 83 84
80 78 77 77 76 76 72 69 71 69 73 73 74 74 75 75 77 79 80 81 82 82 82 84 85 87 87 84 83 82 81 77 72 70 70 70 69 71 71 75 78 84 85 85 84 84 83 83 85
79 74 75 76 76 72 75 67 68 71 73 72 73 74 74 75 77 77 79 79 82 82 82 82 83 85 85 84 83 82 82 82 81 81 81 77 72 69 68 68 69 75 76 82 84 84 83 83 83
75 76 69 74 75 72 71 67 68 72 72 71 73 74 72 74 76 77 78 79 81 82 81 81 82 82 83 83 83 83 82 82 81 82 81 80 79 78 77 73 69 69 68 69 72 75 78 78 79
74 69 71 67 75 74 71 68 69 72 71 70 73 73 73 73 75 76 78 79 80 81 81 80 80 80 80 81 81 81 81 81 81 81 80 79 79 78 77 76 77 75 69 66 66 72 75 75 77
69 70 72 69 71 71 70 69 69 69 69 70 72 73 73 73 73 75 76 78 78 80 80 80 80 80 80 79 79 79 79 79 79 79 78 79 78 77 75 75 75 76 74 69 66 64 65 72 74
72 69 68 72 71 65 67 69 68 68 68 68 70 72 72 74 74 75 76 77 78 78 79 79 78 78 78 75 74 73 72 75 75 76 77 76 76 76 74 73 74 74 73 72 71 68 64 62 71
70 68 68 71 68 66 69 67 72 69 66 69 69 71 72 73 74 75 75 75 75 76 77 77 77 76 76 74 74 73 74 74 74 74 75 75 75 75 74 73 72 73 71 71 71 69 66 64 63
68 66 67 65 66 69 64 64 68 69 68 69 71 72 73 72 73 75 76 75 75 75 76 75 75 75 75 75 74 73 73 72 71 72 72 73 74 73 74 73 73 72 71 69 70 69 67 63 63
63 67 65 63 61 60 66 58 65 66 63 65 67 69 70 71 72 73 73 73 75 75 75 75 75 75 75 75 72 70 67 66 69 70 71 72 73 73 73 73 73 72 71 70 69 71 69 67 64
63 65 63 62 61 62 63 56 65 67 60 63 66 68 70 72 72 72 72 73 74 74 74 73 73 74 74 73 71 69 67 68 69 70 69 71 72 73 73 72 72 71 70 70 69 68 68 68 66
66 63 63 62 60 52 64 59 66 62 65 68 69 70 70 71 72 71 73 73 73 73 72 71 71 71 71 71 70 68 66 66 66 66 66 67 69 70 71 71 71 70 69 68 68 68 67 67 67
63 61 55 52 50 55 62 57 66 69 68 70 70 70 70 71 70 70 70 70 70 69 69 70 70 68 70 70 69 68 67 66 65 65 66 65 66 67 68 69 69 69 68 67 66 66 66 65 65
62 61 56 47 53 57 58 54 64 67 69 70 72 71 70 69 70 69 69 68 69 69 69 69 69 68 69 69 68 68 68 67 66 66 65 65 65 66 67 67 67 68 68 67 67 65 65 65 64
60 56 61 56 61 53 62 64 64 64 64 67 67 68 66 67 68 68 69 69 69 69 69 69 68 67 68 68 67 67 67 65 64 64 66 65 66 66 66 66 65 66 66 65 65 64 64 65 65
60 63 55 57 48 48 59 60 61 59 61 64 65 65 66 67 67 67 68 69 69 70 69 69 69 67 67 67 66 65 64 64 64 64 63 63 64 64 64 64 64 63 64 64 63 63 64 64 63
57 58 57 56 57 50 49 57 68 66 67 65 66 68 67 68 67 67 68 69 69 69 69 68 67 66 65 64 63 62 62 62 62 61 61 62 62 63 62 63 62 62 62 63 63 64 64 63 63
59 59 60 52 53 55 51 51 71 67 66 66 68 69 70 70 68 66 67 67 68 67 67 66 65 64 63 62 61 60 60 60 59 58 59 59 59 60 60 61 61 62 62 62 62 62 63 62 61
MSLP
1009.52 1008.59 1008.37 1007.93 1007.20 1005.82 1006.22 1006.82 1006.15 1006.17 1006.01 1005.94 1006.04 1005.81 1006.35 1007.07 1007.30 1009.02 1010.76 1010.82 1010.93 1011.35 1012.06 1013.04 1013.65 1013.82 1013.98 1013.92 1014.15 1014.27 1014.33 1014.55 1014.64 1014.75 1014.71 1014.70 1014.59 1014.48 1014.46 1014.38 1014.35 1014.30 1014.31 1014.18 1014.15 1014.10 1014.03 1014.05 1014.07
1009.21 1008.65 1008.29 1006.78 1006.11 1005.95 1006.47 1006.42 1006.70 1006.64 1006.56 1006.17 1006.10 1005.78 1006.52 1007.92 1008.37 1009.64 1010.18 1011.21 1011.15 1011.46 1012.03 1012.60 1013.75 1013.83 1013.98 1014.04 1014.21 1014.42 1014.59 1014.68 1014.69 1014.81 1014.89 1014.92 1014.82 1014.75 1014.64 1014.44 1014.57 1014.58 1014.53 1014.46 1014.40 1014.33 1014.27 1014.26 1014.31
1009.01 1008.50 1007.09 1005.74 1005.33 1005.86 1006.61 1006.98 1007.02 1006.83 1006.70 1006.31 1006.12 1006.79 1007.93 1009.62 1009.61 1009.81 1010.95 1011.17 1011.21 1011.58 1011.88 1013.05 1013.64 1013.82 1013.94 1014.13 1014.31 1014.55 1014.68 1014.81 1014.83 1014.84 1015.05 1015.01 1014.91 1014.91 1014.84 1014.73 1014.73 1014.87 1014.82 1014.85 1014.76 1014.65 1014.51 1014.43 1014.40
1008.32 1007.58 1006.51 1005.51 1006.43 1007.10 1007.20 1007.52 1007.19 1006.90 1006.97 1007.01 1006.76 1007.54 1009.72 1011.22 1010.57 1010.61 1011.14 1011.19 1011.28 1011.69 1012.06 1013.69 1014.01 1014.16 1014.32 1014.45 1014.63 1014.84 1015.02 1015.12 1015.18 1015.22 1015.26 1015.19 1015.15 1015.15 1015.03 1014.87 1014.90 1014.88 1014.92 1014.97 1014.97 1014.93 1014.80 1014.68 1014.55
1008.01 1006.83 1005.71 1005.88 1006.98 1007.40 1007.78 1007.87 1007.77 1007.44 1007.49 1007.67 1007.34 1008.14 1010.30 1011.74 1011.32 1011.12 1011.39 1011.27 1011.41 1011.72 1012.20 1013.39 1014.26 1014.46 1014.60 1014.72 1014.84 1014.99 1015.08 1015.20 1015.32 1015.38 1015.42 1015.38 1015.37 1015.46 1015.41 1015.27 1015.19 1015.13 1015.14 1015.06 1015.08 1015.06 1014.95 1014.82 1014.73
1007.18 1006.57 1005.59 1005.90 1007.26 1007.79 1008.05 1008.02 1008.01 1008.03 1008.11 1008.64 1008.47 1008.61 1011.14 1012.48 1012.01 1011.66 1011.64 1011.53 1011.62 1012.14 1012.41 1013.05 1014.19 1014.51 1014.65 1014.76 1014.86 1014.96 1015.12 1015.18 1015.38 1015.48 1015.54 1015.57 1015.54 1015.59 1015.63 1015.59 1015.52 1015.44 1015.39 1015.36 1015.34 1015.21 1015.05 1014.87 1014.84
1007.42 1006.64 1006.49 1006.98 1007.72 1008.34 1008.70 1008.63 1008.82 1008.71 1009.16 1009.97 1010.07 1009.12 1010.65 1012.15 1012.58 1012.05 1011.83 1011.86 1012.00 1012.16 1012.45 1012.45 1012.78 1013.89 1014.43 1014.63 1014.77 1014.86 1015.02 1015.09 1015.30 1015.43 1015.53 1015.57 1015.59 1015.61 1015.67 1015.70 1015.63 1015.56 1015.49 1015.44 1015.42 1015.36 1015.26 1015.01 1014.89
1008.19 1007.48 1007.14 1007.67 1007.89 1008.95 1009.42 1009.30 1009.75 1009.85 1010.76 1011.04 1011.39 1011.50 1011.80 1013.14 1012.76 1012.28 1012.17 1012.16 1012.25 1012.58 1012.57 1012.03 1012.34 1012.21 1013.33 1013.87 1014.38 1014.67 1014.80 1014.91 1015.12 1015.27 1015.37 1015.49 1015.53 1015.50 1015.55 1015.56 1015.56 1015.60 1015.59 1015.52 1015.48 1015.46 1015.39 1015.38 1015.20
1008.71 1007.79 1007.27 1008.42 1008.64 1009.50 1009.88 1009.77 1010.50 1010.88 1011.59 1012.49 1013.07 1013.57 1013.92 1013.60 1012.85 1012.20 1012.04 1012.21 1012.47 1012.91 1012.51 1012.39 1012.31 1012.01 1012.35 1013.08 1013.38 1014.31 1014.60 1014.74 1014.90 1015.05 1015.15 1015.30 1014.94 1014.68 1014.84 1014.96 1015.32 1015.46 1015.47 1015.46 1015.45 1015.43 1015.37 1015.47 1015.38
1008.34 1008.10 1008.86 1009.63 1009.71 1009.96 1010.54 1010.80 1011.32 1011.39 1012.08 1013.10 1013.70 1014.15 1014.12 1013.83 1013.41 1013.22 1013.08 1013.16 1013.52 1013.81 1013.86 1013.74 1013.35 1012.97 1012.62 1012.87 1013.16 1013.83 1013.83 1013.93 1014.02 1013.68 1013.74 1013.97 1013.68 1013.91 1014.39 1014.86 1015.22 1015.30 1015.29 1015.23 1015.18 1015.20 1015.21 1015.22 1014.47
1008.77 1008.78 1009.84 1010.43 1010.71 1010.96 1011.04 1011.82 1012.54 1012.20 1013.58 1014.73 1014.76 1014.73 1014.60 1014.47 1014.36 1014.25 1014.27 1014.32 1014.48 1014.70 1014.63 1014.46 1014.08 1013.79 1013.57 1013.38 1014.25 1014.32 1014.49 1014.59 1014.27 1013.73 1013.14 1013.13 1013.41 1013.75 1013.98 1014.09 1014.49 1014.72 1014.96 1014.62 1014.78 1014.73 1014.70 1014.11 1014.04
1009.00 1010.07 1010.36 1011.09 1011.45 1011.50 1011.55 1012.38 1013.37 1013.61 1015.02 1015.65 1015.79 1015.46 1015.11 1014.97 1015.01 1015.02 1015.04 1015.02 1015.05 1015.07 1015.11 1014.83 1014.38 1013.97 1013.50 1013.40 1014.47 1015.06 1015.33 1015.29 1014.99 1014.74 1014.53 1014.20 1013.25 1013.30 1013.46 1013.56 1013.71 1013.94 1014.12 1014.00 1013.83 1013.75 1013.78 1014.02 1014.13
1009.19 1010.31 1011.02 1011.64 1011.85 1012.11 1012.61 1013.08 1013.96 1014.97 1015.68 1015.95 1016.07 1015.93 1015.70 1015.54 1015.54 1015.62 1015.56 1015.55 1015.53 1015.50 1015.51 1015.32 1014.92 1014.58 1014.44 1014.38 1014.83 1015.56 1015.82 1015.78 1015.68 1015.53 1015.41 1015.47 1014.94 1014.72 1014.06 1013.29 1013.38 1013.60 1013.76 1013.77 1013.67 1013.56 1013.53 1013.57 1013.54
1010.12 1010.60 1011.21 1011.76 1012.15 1012.63 1013.10 1013.93 1014.26 1015.47 1015.87 1015.94 1015.99 1016.13 1016.26 1016.26 1016.14 1016.05 1015.99 1015.86 1015.87 1015.99 1015.99 1015.92 1015.55 1015.28 1015.12 1015.21 1015.22 1015.25 1015.39 1015.71 1015.84 1015.83 1015.75 1015.73 1015.73 1015.54 1015.21 1014.67 1014.10 1013.45 1013.52 1013.54 1013.55 1013.41 1013.27 1013.21 1013.08
1010.42 1010.50 1011.14 1011.60 1012.10 1012.64 1013.07 1013.69 1014.07 1015.21 1015.64 1015.70 1015.75 1016.16 1016.46 1016.59 1016.54 1016.50 1016.51 1016.42 1016.21 1016.32 1016.49 1016.41 1016.17 1015.89 1015.76 1015.70 1015.69 1015.56 1015.63 1015.44 1015.27 1015.09 1015.16 1015.44 1015.63 1015.72 1015.66 1015.48 1015.29 1014.71 1014.26 1013.63 1013.25 1013.19 1013.14 1012.95 1012.91
1010.13 1010.11 1010.04 1010.95 1011.81 1012.85 1013.37 1012.46 1014.08 1015.04 1015.29 1015.30 1015.51 1015.94 1016.46 1016.65 1016.72 1016.89 1016.96 1016.87 1016.77 1016.61 1016.78 1016.94 1016.85 1016.58 1016.34 1016.15 1015.96 1015.85 1015.86 1015.78 1015.62 1015.45 1015.31 1015.34 1015.38 1015.25 1014.93 1015.09 1015.15 1015.17 1015.16 1014.98 1014.48 1013.86 1013.40 1013.23 1012.94
1009.46 1008.87 1009.06 1010.77 1011.63 1011.92 1012.77 1012.22 1013.70 1014.79 1015.01 1015.14 1015.28 1015.67 1016.15 1016.60 1016.93 1017.14 1017.24 1017.22 1017.18 1017.19 1017.16 1017.17 1017.25 1017.11 1017.01 1016.77 1016.53 1016.32 1016.18 1015.99 1015.86 1015.70 1015.71 1015.69 1015.52 1015.41 1015.17 1014.77 1014.36 1014.34 1014.85 1015.03 1014.80 1014.17 1013.71 1013.22 1012.74
1008.42 1008.50 1008.89 1009.92 1011.16 1011.92 1011.87 1012.01 1013.26 1014.49 1014.87 1014.85 1015.02 1015.39 1015.83 1016.22 1016.75 1017.22 1017.48 1017.49 1017.55 1017.46 1017.44 1017.50 1017.57 1017.57 1017.41 1017.28 1017.01 1016.85 1016.59 1016.38 1016.22 1016.10 1015.95 1015.78 1015.59 1015.51 1015.40 1015.10 1014.58 1014.29 1014.17 1014.44 1014.66 1014.57 1014.16 1013.33 1012.81
1009.63 1009.47 1009.45 1009.79 1011.26 1012.16 1011.48 1011.39 1012.35 1013.91 1014.56 1014.63 1014.83 1015.03 1015.39 1015.77 1016.75 1017.18 1017.49 1017.60 1017.56 1017.57 1017.59 1017.65 1017.75 1017.89 1017.72 1017.69 1017.49 1017.30 1017.11 1016.75 1016.61 1016.48 1016.24 1016.00 1015.83 1015.47 1015.35 1015.10 1014.71 1014.36 1014.14 1013.97 1014.03 1014.09 1014.13 1013.88 1013.06
1010.29 1009.93 1009.77 1010.22 1011.62 1012.17 1011.03 1010.77 1011.29 1012.77 1013.97 1014.38 1014.62 1014.75 1015.09 1015.57 1016.19 1016.66 1017.10 1017.49 1017.53 1017.59 1017.65 1017.82 1017.96 1018.15 1018.14 1018.09 1017.96 1017.85 1017.43 1017.11 1016.85 1016.43 1016.07 1015.90 1015.69 1015.50 1015.24 1014.86 1014.59 1014.33 1014.00 1013.81 1013.66 1013.57 1013.67 1013.74 1013.74
1010.75 1010.64 1010.49 1010.95 1011.62 1011.56 1011.44 1009.48 1009.88 1011.77 1013.43 1014.15 1014.42 1014.64 1014.92 1015.46 1015.70 1015.96 1016.42 1016.82 1017.33 1017.44 1017.65 1018.10 1018.24 1018.23 1018.10 1018.02 1017.88 1017.62 1017.38 1017.10 1016.64 1016.22 1015.89 1015.69 1015.51 1015.35 1014.94 1014.52 1014.26 1014.00 1013.85 1013.58 1013.39 1013.26 1013.19 1013.13 1013.45
1011.22 1011.70 1011.98 1011.93 1011.81 1010.69 1011.33 1009.41 1009.35 1010.98 1012.64 1013.53 1014.13 1014.48 1014.87 1015.47 1015.90 1016.20 1016.53 1016.76 1016.98 1017.19 1017.55 1018.06 1018.02 1018.00 1017.84 1017.78 1017.68 1017.51 1017.26 1016.80 1016.46 1016.15 1015.67 1015.26 1014.98 1014.77 1014.50 1014.22 1013.87 1013.70 1013.54 1013.28 1013.07 1012.84 1012.54 1012.44 1012.37
1012.23 1012.81 1012.64 1012.43 1011.90 1011.10 1010.06 1010.65 1008.88 1010.19 1011.55 1012.47 1013.36 1014.02 1014.68 1015.17 1015.67 1016.00 1016.51 1016.90 1017.20 1017.36 1017.50 1017.91 1017.95 1017.79 1017.71 1017.70 1017.60 1017.30 1016.92 1016.55 1016.08 1015.74 1015.23 1014.81 1014.38 1014.06 1013.85 1013.63 1013.42 1013.25 1013.13 1012.92 1012.79 1012.63 1012.40 1012.09 1011.91
1013.51 1013.17 1012.72 1012.46 1011.75 1010.46 1008.82 1009.67 1007.75 1009.36 1010.11 1011.05 1012.29 1013.31 1014.16 1014.98 1015.60 1016.30 1016.66 1016.94 1017.10 1017.34 1017.63 1017.71 1017.71 1017.61 1017.58 1017.39 1017.21 1016.93 1016.57 1016.14 1015.66 1015.30 1014.87 1014.37 1013.95 1013.50 1013.31 1013.08 1012.82 1012.73 1012.66 1012.58 1012.47 1012.26 1012.05 1011.72 1011.36
1013.65 1012.96 1011.56 1011.22 1010.71 1009.01 1009.46 1009.51 1007.91 1008.88 1010.14 1010.49 1011.44 1012.71 1013.89 1014.87 1015.69 1016.28 1016.56 1016.84 1017.16 1017.39 1017.51 1017.53 1017.34 1017.25 1017.15 1016.96 1016.79 1016.53 1016.21 1015.85 1015.31 1014.86 1014.34 1013.94 1013.40 1013.15 1012.84 1012.65 1012.28 1012.09 1011.96 1011.89 1011.95 1011.92 1011.54 1011.41 1010.98
1013.20 1012.95 1011.72 1010.44 1009.21 1008.61 1009.77 1008.70 1008.49 1009.94 1010.58 1011.14 1011.58 1012.73 1013.94 1014.86 1015.59 1016.17 1016.52 1016.93 1017.10 1017.11 1017.12 1017.05 1016.96 1016.83 1016.77 1016.51 1016.20 1015.95 1015.68 1015.28 1014.89 1014.49 1014.13 1013.59 1013.17 1012.69 1012.57 1012.32 1011.99 1011.74 1011.52 1011.30 1011.18 1010.95 1010.71 1010.52 1010.38
1013.74 1013.39 1013.09 1011.74 1009.97 1009.59 1007.93 1008.07 1009.32 1010.17 1010.87 1011.42 1012.16 1013.08 1013.97 1014.83 1015.46 1016.01 1016.35 1016.61 1016.73 1016.70 1016.67 1016.71 1016.68 1016.45 1016.23 1016.05 1015.82 1015.58 1015.42 1015.13 1014.74 1014.37 1013.84 1013.25 1012.80 1012.35 1012.00 1011.68 1011.28 1011.09 1010.93 1010.85 1010.69 1010.12 1009.73 1009.67 1009.42
1014.60 1014.30 1013.33 1012.37 1010.43 1008.70 1007.34 1007.38 1007.95 1009.73 1010.78 1011.56 1012.17 1012.92 1013.86 1014.68 1015.36 1015.77 1016.03 1016.19 1016.29 1016.36 1016.44 1016.44 1016.29 1016.08 1015.89 1015.77 1015.68 1015.51 1015.34 1015.00 1014.50 1013.95 1013.37 1012.88 1012.29 1011.89 1011.43 1010.94 1010.75 1010.56 1010.26 1010.20 1009.95 1009.30 1008.85 1008.86 1008.64
1014.85 1014.06 1013.85 1013.19 1011.73 1010.09 1008.77 1007.76 1008.63 1009.37 1010.16 1011.09 1011.99 1012.55 1013.36 1014.07 1014.93 1015.50 1015.85 1015.95 1016.03 1016.11 1016.09 1016.04 1015.96 1015.84 1015.71 1015.68 1015.57 1015.34 1015.03 1014.63 1014.19 1013.72 1013.23 1012.68 1012.02 1011.47 1010.88 1010.37 1010.05 1009.67 1009.29 1009.13 1008.87 1008.11 1007.78 1007.67 1007.62
1014.82 1014.07 1013.58 1012.92 1011.97 1011.35 1010.82 1009.15 1008.85 1009.93 1010.75 1011.44 1011.77 1012.18 1012.86 1013.53 1014.42 1015.45 1015.74 1015.73 1015.76 1015.81 1015.81 1015.84 1015.76 1015.70 1015.60 1015.49 1015.31 1015.12 1014.81 1014.40 1013.95 1013.47 1013.02 1012.56 1011.88 1011.23 1010.56 1009.92 1009.28 1008.74 1008.30 1008.10 1007.82 1007.18 1006.82 1006.66 1006.59
Wind_Speed
16 8 4 5 6 3 12 4 13 12 10 10 10 9 18 19 16 7 3 5 7 9 14 12 8 6 4 5 7 8 7 7 6 6 8 8 8 8 11 8 10 11 12 10 9 7 7 8 8
10 6 4 5 4 2 8 11 10 9 8 3 7 7 15 19 14 11 7 6 8 8 11 12 9 7 5 7 7 6 2 3 4 3 5 6 6 7 8 6 12 10 10 11 10 9 9 6 7
10 6 6 4 6 10 9 9 7 6 8 10 4 12 12 10 14 14 11 7 8 7 7 13 10 8 6 5 4 2 1 3 4 2 3 2 2 5 6 6 8 8 10 10 10 11 8 6 4
4 5 6 1 11 10 10 8 6 3 6 8 8 14 12 15 7 7 8 8 8 7 8 11 8 6 2 2 1 1 2 3 3 3 2 1 3 3 4 3 5 5 7 6 8 10 10 8 4
4 5 4 6 9 10 8 6 7 6 3 8 11 14 14 11 8 7 6 5 8 7 9 10 6 2 3 2 1 0 1 0 1 1 1 1 1 3 4 5 5 5 6 5 7 8 9 6 6
5 4 3 5 9 7 8 5 6 6 5 11 5 5 11 12 12 5 3 6 7 8 5 11 9 4 3 2 3 3 2 2 1 1 1 3 2 1 3 4 4 5 5 6 7 6 9 3 3
5 6 5 3 8 7 4 4 7 5 11 11 12 2 13 19 11 5 4 7 5 7 5 5 11 10 8 6 5 4 4 4 3 4 3 3 3 3 2 3 3 4 5 5 6 5 5 4 4
4 4 4 2 3 4 2 3 4 9 10 6 14 7 6 15 12 2 3 4 5 5 2 2 4 7 9 6 11 8 4 5 5 6 6 5 6 6 5 6 5 2 4 5 5 5 3 4 3
2 5 2 4 2 5 1 3 7 5 12 13 8 9 8 8 6 3 4 5 7 6 5 3 5 6 7 7 8 11 10 8 7 9 11 8 8 10 8 7 6 3 5 5 5 6 5 3 5
4 4 6 3 3 3 2 5 5 4 4 7 10 10 9 8 8 8 7 6 7 7 8 9 11 14 14 7 3 5 1 6 8 10 11 9 7 3 3 0 5 7 8 7 7 7 7 9 9
3 5 6 4 4 3 2 3 4 3 6 6 7 9 9 9 9 9 9 7 8 9 8 10 9 8 9 5 5 4 5 5 6 14 6 5 3 4 5 5 6 7 11 7 9 8 7 8 6
3 6 2 2 2 3 2 5 7 9 7 5 5 5 7 10 10 10 10 10 10 10 11 12 12 10 11 2 4 4 4 6 6 9 11 9 4 4 5 4 5 4 5 7 6 5 6 7 8
1 5 4 5 5 6 6 4 8 8 6 5 4 5 7 8 9 9 9 10 11 12 12 13 13 13 12 9 5 5 5 5 6 6 8 7 8 9 11 7 5 5 5 7 7 7 7 8 9
4 3 6 7 6 8 7 7 3 5 6 5 5 6 7 7 7 8 9 9 10 11 12 12 14 14 12 11 11 7 5 3 3 3 4 7 5 7 7 8 10 8 7 7 7 8 7 8 8
3 6 7 7 8 3 7 7 6 9 7 6 6 6 6 6 7 8 8 9 9 10 11 12 12 13 12 12 10 8 8 8 8 6 5 5 3 4 6 5 5 9 11 13 9 9 9 8 8
7 6 11 8 8 6 5 3 9 9 9 8 6 7 5 5 6 7 7 7 8 8 10 11 11 13 13 12 9 7 8 7 7 7 7 9 8 10 7 5 5 4 4 7 9 8 7 8 8
9 10 8 9 6 3 12 4 11 10 10 9 9 8 7 6 6 6 6 6 6 7 9 9 10 12 12 11 10 10 11 8 7 7 7 11 10 10 9 8 8 5 4 4 5 8 9 8 8
10 6 6 8 9 9 12 14 9 11 11 11 10 9 9 9 6 5 4 3 5 6 7 8 9 11 11 9 9 8 8 8 8 9 9 12 9 10 9 8 9 9 7 5 5 9 9 11 9
8 9 11 5 5 6 15 12 9 11 12 12 11 11 10 9 7 5 3 1 1 3 6 7 9 11 10 9 9 9 9 10 9 9 11 11 12 11 11 8 9 8 8 9 8 7 8 8 11
7 10 10 1 1 6 11 14 13 15 14 13 12 12 11 8 9 8 6 3 3 5 4 8 9 10 9 8 8 9 10 10 10 9 11 12 13 12 12 11 9 10 7 9 9 8 8 9 7
9 9 10 8 2 13 12 19 16 14 12 13 13 12 10 10 9 7 7 4 4 6 5 7 8 9 9 9 8 9 10 9 9 9 9 10 13 14 15 13 12 11 9 8 9 8 9 8 7
10 5 3 5 7 7 1 7 11 15 14 14 14 13 12 11 9 7 6 5 7 8 5 7 8 10 10 12 11 15 11 12 10 11 10 12 15 15 15 15 13 12 9 10 9 10 9 8 9
4 1 5 8 11 11 13 6 8 12 13 16 16 16 14 12 10 8 5 5 7 7 6 7 9 11 13 14 14 11 13 11 10 11 16 15 14 15 15 15 15 12 10 11 12 12 12 9 10
2 6 8 7 7 7 9 8 6 7 10 11 16 16 13 11 9 8 7 6 6 3 5 7 10 12 14 14 16 15 15 17 14 14 13 11 11 10 14 15 14 12 11 11 10 11 12 12 11
6 7 4 7 6 3 4 6 9 6 4 3 12 14 12 11 10 9 7 5 5 5 6 9 11 14 16 17 17 17 15 17 18 17 12 15 11 10 12 15 14 12 12 11 11 13 12 12 12
4 6 7 7 7 6 4 7 4 6 4 3 7 11 11 11 10 8 7 5 7 7 10 12 14 17 17 17 18 17 17 11 12 14 14 12 12 12 14 15 15 16 16 14 13 12 12 12 12
6 5 5 7 8 6 6 6 9 3 5 7 10 11 11 11 10 8 8 7 8 10 12 14 16 17 18 18 17 18 18 17 15 18 16 12 15 13 16 16 16 16 16 16 17 13 14 13 13
7 5 5 5 6 8 5 7 7 7 7 8 11 13 12 11 9 8 8 8 9 11 13 15 16 18 18 18 17 15 18 19 17 16 18 18 17 17 18 17 16 17 17 16 19 16 15 15 12
5 5 5 5 5 7 10 4 7 5 1 9 10 11 12 13 11 7 9 9 11 12 14 15 16 18 17 17 17 18 18 19 19 17 18 18 19 18 19 18 18 18 18 16 18 19 16 16 15
4 6 7 5 5 7 4 12 4 4 3 2 5 5 6 9 7 8 10 11 13 14 15 16 16 17 17 17 18 18 18 18 18 18 20 20 20 19 19 19 19 19 17 16 18 19 16 16 16
Wind_Direction
284 277 297 248 243 101 78 97 61 38 51 47 46 44 73 46 26 44 123 57 110 133 121 153 143 148 150 195 113 87 65 80 52 36 25 22 27 28 28 45 42 45 45 47 49 43 70 75 69
304 296 240 273 248 98 79 72 62 42 45 341 53 61 76 56 60 103 131 67 120 133 134 134 147 141 185 116 106 93 78 6 99 16 30 15 22 20 16 33 58 46 51 48 39 30 46 67 70
270 267 269 281 4 46 89 55 53 74 45 20 96 43 40 350 40 62 76 103 117 127 129 113 155 146 177 164 157 138 95 43 25 51 38 14 18 29 352 32 54 45 51 34 35 29 31 33 36
303 206 232 327 94 61 62 66 27 132 54 21 324 95 103 24 22 46 78 110 122 126 123 126 155 158 204 150 95 77 55 19 28 39 19 10 55 20 343 34 21 21 23 31 29 23 10 18 58
233 254 234 93 92 85 78 65 32 50 43 26 353 82 71 26 19 86 86 101 108 106 111 139 158 177 175 207 144 195 256 95 11 345 346 318 2 2 346 354 353 3 351 1 13 10 353 358 31
247 267 230 126 108 111 75 50 31 28 33 21 46 66 82 49 19 60 75 94 94 103 111 122 148 182 218 231 222 240 276 189 212 265 286 306 312 334 342 338 343 342 336 341 347 352 13 17 24
304 296 47 131 121 100 41 3 29 18 15 34 333 338 132 34 5 355 88 89 88 103 113 155 156 169 193 200 216 235 227 200 206 236 237 252 271 275 283 307 312 318 319 320 319 330 13 53 67
297 276 184 22 153 109 50 59 4 15 66 315 1 34 39 354 337 61 123 103 108 114 60 304 133 177 160 197 203 205 214 217 217 231 227 228 235 231 220 236 214 280 300 306 309 307 339 360 65
296 260 112 75 172 131 66 330 79 33 74 64 59 35 358 349 344 12 127 70 40 356 348 293 281 295 160 213 175 188 203 212 208 223 221 223 246 189 178 151 158 225 258 274 288 297 281 287 233
304 275 60 52 89 108 83 349 340 251 100 70 53 39 28 32 39 48 33 42 36 20 7 344 337 333 344 355 4 2 157 231 214 222 171 214 233 256 289 1 183 232 242 247 247 260 272 260 251
16 29 131 95 68 358 315 94 3 144 104 44 40 34 44 46 52 51 51 43 45 34 19 11 348 332 313 301 357 352 340 328 326 336 303 239 268 260 224 232 201 221 212 241 201 205 227 238 263
187 77 36 102 347 258 211 96 82 39 89 74 59 41 52 62 58 56 53 49 44 46 34 23 16 15 358 332 24 359 352 336 340 332 341 334 306 257 260 265 273 260 258 249 250 245 230 225 247
297 118 95 108 113 89 118 112 111 98 113 110 91 67 63 66 66 60 56 56 52 46 41 33 29 29 29 32 37 35 13 9 1 1 352 355 338 322 322 298 266 269 263 270 273 249 250 234 241
96 102 133 148 133 131 136 142 185 139 151 134 125 98 78 69 66 70 57 56 54 52 42 38 34 31 34 36 35 36 29 15 6 1 354 354 346 332 340 326 315 291 275 275 271 268 254 260 244
161 164 160 178 169 152 151 191 195 147 181 162 148 123 107 99 92 73 64 55 56 59 51 39 32 32 33 29 25 25 24 15 8 15 25 12 349 325 322 311 292 305 323 322 289 270 280 266 262
232 244 218 149 189 147 223 272 156 172 187 183 167 141 138 115 106 91 74 64 50 50 53 44 28 25 21 19 21 17 14 3 3 357 358 1 356 347 321 284 278 279 277 297 292 293 270 266 267
201 269 215 163 204 178 210 273 162 184 200 190 195 166 161 139 122 99 84 67 47 44 33 33 29 22 17 11 7 2 1 355 355 347 346 341 337 340 333 325 318 282 263 285 294 278 273 273 255
319 247 249 265 167 222 238 253 163 195 209 201 196 182 183 173 148 120 101 73 58 29 34 25 20 11 10 359 1 352 350 345 345 340 335 333 330 326 324 317 312 315 305 250 269 277 295 273 262
291 279 272 278 102 283 254 263 199 199 209 206 200 197 194 188 163 165 146 143 0 19 12 7 12 2 0 354 351 344 338 333 334 330 317 326 323 325 319 308 305 305 303 304 294 275 277 296 286
260 266 265 134 212 255 276 251 234 192 213 211 205 207 199 189 194 188 188 214 290 315 358 347 354 352 345 343 334 327 319 323 312 307 309 317 314 315 308 305 298 298 294 293 291 277 276 274 280
240 273 299 287 285 244 283 264 228 183 203 211 217 210 206 208 218 207 215 220 245 277 318 321 318 323 331 324 317 312 313 304 304 301 304 299 300 301 301 298 293 293 292 292 289 282 276 261 261
272 59 290 286 289 292 241 297 183 182 201 208 211 214 214 215 223 239 251 269 279 282 267 278 300 310 314 325 319 314 309 302 303 299 292 296 287 289 288 290 286 288 286 284 281 277 268 260 259
31 3 284 285 274 288 241 248 108 169 201 212 211 213 215 216 223 226 245 278 286 293 298 306 297 303 317 318 312 306 300 298 296 291 296 290 289 286 288 283 283 283 283 283 288 291 287 279 278
47 261 242 270 259 247 226 225 161 173 217 200 201 208 207 214 220 223 244 254 262 298 279 291 304 308 312 309 307 307 303 301 300 296 292 288 284 279 278 281 279 273 271 281 288 280 277 279 270
235 260 235 209 201 314 118 235 277 118 154 255 192 195 198 203 209 224 235 256 290 295 295 296 307 308 309 308 307 304 301 298 297 297 292 294 290 287 287 288 281 278 275 267 270 279 269 273 270
215 297 303 303 327 343 153 238 99 78 101 178 179 179 192 199 210 225 245 262 278 292 303 307 310 311 309 308 306 306 305 300 300 297 294 290 290 289 287 283 283 282 282 281 275 267 264 247 255
131 225 11 294 255 257 235 205 149 158 165 176 177 185 194 209 219 235 252 268 286 300 309 311 311 306 312 311 311 309 307 305 302 300 295 294 290 285 281 279 281 279 277 278 280 267 262 266 257
273 360 240 199 275 285 272 263 266 165 189 194 199 206 208 213 223 244 265 281 293 306 312 309 309 308 310 311 311 310 306 302 299 297 295 293 292 292 287 278 280 277 276 274 270 261 252 257 260
172 213 230 302 277 297 300 289 44 50 210 203 223 226 222 220 225 262 282 291 304 304 309 310 311 312 311 311 309 308 306 305 304 302 301 299 297 293 286 286 281 273 267 268 271 260 253 249 254
303 284 281 265 277 244 274 279 11 68 104 6 321 300 260 251 250 269 280 295 301 309 313 313 313 311 310 311 310 307 305 304 303 301 300 300 297 296 295 292 287 278 274 272 269 263 256 257 254